AirNav   Everest Fuels
 
 1029 users online  

4TX2 Stage Coach Hills Airport
Westlake, Texas, USA

GOING TO WESTLAKE?


FAA INFORMATION EFFECTIVE 03 JANUARY 2019

Location

FAA Identifier: 4TX2
Lat/Long: 32-58-00.4490N / 097-14-01.0530W
32-58.007483N / 097-14.017550W
32.9667914 / -97.2336258
(estimated)
Elevation: 684 ft. / 208 m (estimated)
Variation: 07E (1985)
From city: 2 miles SW of WESTLAKE, TX
Time zone: UTC -6 (UTC -5 during Daylight Saving Time)
Zip code: 76262

Airport Operations

Airport use: Private use. Permission required prior to landing
Activation date: 07/1973
Control tower: no
ARTCC: FORT WORTH CENTER
FSS: FORT WORTH FLIGHT SERVICE STATION
Attendance: UNATNDD
Wind indicator: yes
Segmented circle: yes

Airport Communications

WX ASOS at AFW (5 nm W): PHONE 817-491-6188
WX ASOS at DFW (11 nm SE): PHONE 972-615-2608
WX ASOS at FTW (11 nm SW): PHONE 817-740-3346
WX ASOS at DTO (14 nm N): 119.325 (940-383-8457)
WX AWOS-3P at GPM (19 nm SE): 118.475 (972-606-1433)
WX ASOS at GKY (19 nm S): 127.375 (817-557-0251)
WX AWOS-3 at ADS (20 nm E): PHONE 972-386-4855

Nearby radio navigation aids

VOR radial/distance  VOR name  Freq  Var
FUZr324/5.4RANGER VORTAC115.7006E
TTTr295/11.4MAVERICK VOR/DME113.1006E
CVEr279/17.2COWBOY VOR/DME116.2006E

 
NDB name  Hdg/Dist  Freq  Var  ID
MUFIN050/8.336508EFT ..-. -
MESQUITE282/36.724803EPQF .--. --.- ..-.
MELISA238/36.942103EVLY ...- .-.. -.--

Airport Services

Airframe service: NONE
Powerplant service: NONE

Runway Information

Runway 17/35

Dimensions: 2700 x 90 ft. / 823 x 27 m
Surface: turf
RUNWAY 17  RUNWAY 35
Traffic pattern: rightleft

Airport Ownership and Management from official FAA records

Ownership: Privately-owned
Owner: STEVE THORNTON
13187 THORTON DRIVE
ROANOKE, TX 76262
Phone (817) 995-9647
Manager: J. L. HASKINS
5920 STEVE COURT
WESTLAKE , TX 76262
Phone 817-430-1987

Airport Operational Statistics

Aircraft based on the field: 17
Single engine airplanes: 16
Multi engine airplanes: 1
    

Additional Remarks

TREES ALONG WESTERN EDGE OF RY.
FOR CD CTC REGIONAL APCH AT 972-615-2799.

Instrument Procedures

There are no published instrument procedures at 4TX2.

Some nearby airports with instrument procedures:

KAFW - Fort Worth Alliance Airport (5 nm W)
KDFW - Dallas-Fort Worth International Airport (11 nm SE)
KFTW - Fort Worth Meacham International Airport (11 nm SW)
4T2 - Kenneth Copeland Airport (13 nm W)
KDTO - Denton Enterprise Airport (14 nm N)
KNFW - Fort Worth Naval Air Station JRB (Carswell Field) Airport (16 nm SW)
KGPM - Grand Prairie Municipal Airport (19 nm SE)
KGKY - Arlington Municipal Airport (19 nm S)
KADS - Addison Airport (20 nm E)
 
Loc | Ops | Rwys | IFR | FBO | Links
Com | Nav | Svcs | Stats | Notes
Area around 4TX2 (Stage Coach Hills Airport)
 
Road maps at: MapQuest Bing Google
 
Aerial photo
WARNING: Photo may not be current or correct
Aerial photo of 4TX2 (Stage Coach Hills Airport)
Do you have a better or more recent aerial photo of Stage Coach Hills Airport that you would like to share? If so, please send us your photo.

 
Sectional chart

 
Airport distance calculator
Flying to Stage Coach Hills Airport? Find the distance to fly.

From to 4TX2

Sunrise and sunset
Times for 20-Jan-2019
 Local
(UTC-6)
 Zulu
(UTC)
Morning civil twilight07:0513:05
Sunrise07:3213:32
Sunset17:4923:49
Evening civil twilight18:1500:15

Current date and time
Zulu (UTC)  20-Jan-2019 20:49:57
Local (UTC-6)  20-Jan-2019 14:49:57
 
METAR
KAFW 
4nm W 
201953Z 14007KT 10SM BKN300 07/M07 A3028 RMK AO2 SLP264 T00671067 $
KFTW 
10nm SW 
201953Z 13008KT 10SM CLR 06/M06 A3028 RMK AO2 SLP257 T00611061
KDFW 
12nm E 
201953Z VRB03KT 10SM BKN300 06/M07 A3028 RMK AO2 SLP256 T00611067
KDTO 
14nm N 
201953Z 18006KT 10SM CLR 07/M05 A3029 RMK AO2 SLP261 T00671050
KNFW 
16nm SW 
201952Z 12008KT 10SM BKN300 08/M07 A3028 RMK AO2 SLP237 T00781067 VISNO N $
KGPM 
18nm SE 
201950Z 16005KT 10SM SKC 07/M06 A3032
KGKY 
19nm S 
201953Z 10005KT 10SM CLR 07/M06 A3029 RMK AO2 SLP261 T00671056 $
TAF
KAFW 
4nm W 
201726Z 2018/2118 16006KT P6SM BKN250 FM211500 17019KT P6SM SCT300
KFTW 
10nm SW 
201726Z 2018/2118 16006KT P6SM BKN250 FM211500 17019KT P6SM SCT300
KDFW 
12nm E 
201726Z 2018/2124 16006KT P6SM BKN250 FM211500 17017KT P6SM SCT300
KNFW 
16nm SW 
2015/2115 29005KT 9999 FEW250 QNH3035INS BECMG 2018/2020 17006KT 9999 SKC QNH3030INS BECMG 2103/2105 18013G20KT 9999 SKC QNH3030INS T08/2021Z T03/2115Z FN00247
KGKY 
19nm S 
201726Z 2018/2118 16006KT P6SM BKN250 FM211500 17019KT P6SM SCT300
NOTAMs
Click for the latest NOTAMs
NOTAMs are issued by the DoD/FAA and will open in a separate window not controlled by AirNav.

 

 
 

Would you like to see your business listed on this page?

 If your business provides an interesting product or service to pilots, flight crews, aircraft, or users of the Stage Coach Hills Airport, you should consider listing it here.  To start the listing process, click on the button below
 
Add a business
 

Other Pages about Stage Coach Hills Airport

Update a link
 
Copyright © AirNav, LLC. All rights reserved. Privacy Policy  Contact